IGO642 VOMM-VOBL

Flight info

Callsign IGO642
Flight time 0h 33m
Altitude 20000
Route XIVIL2A XIVIL W117 BIA
Aircraft A320/M-SDE3FGHIRWY/LB1

Departure

Time 2026-05-08 20:18
Airport Chennai International Airport (VOMM)

Arrival

Time 2026-05-08 20:52
Airport Kempegowda International Airport Bengaluru (VOBL)
Time Latitude Longitude Altitude Speed Heading
2026-05-08 20:00 12.98475 80.16638 56 ft 0 kts 158°
2026-05-08 20:08 12.98490 80.16632 48 ft 4 kts 159°
2026-05-08 20:08 12.98509 80.16625 51 ft 4 kts 176°
2026-05-08 20:08 12.98533 80.16630 51 ft 4 kts 220°
2026-05-08 20:08 12.98547 80.16647 47 ft 1 kts 249°
2026-05-08 20:09 12.98547 80.16648 47 ft 0 kts 249°
2026-05-08 20:10 12.98546 80.16645 47 ft 1 kts 250°
2026-05-08 20:10 12.98540 80.16628 52 ft 4 kts 250°
2026-05-08 20:11 12.98529 80.16597 51 ft 6 kts 249°
2026-05-08 20:11 12.98512 80.16552 50 ft 8 kts 249°
2026-05-08 20:11 12.98490 80.16491 54 ft 10 kts 249°
2026-05-08 20:11 12.98462 80.16416 55 ft 12 kts 249°
2026-05-08 20:12 12.98441 80.16356 54 ft 14 kts 250°
2026-05-08 20:12 12.98406 80.16258 52 ft 15 kts 250°
2026-05-08 20:12 12.98369 80.16157 55 ft 14 kts 250°
2026-05-08 20:12 12.98335 80.16059 52 ft 14 kts 250°
2026-05-08 20:13 12.98295 80.15963 52 ft 15 kts 249°
2026-05-08 20:13 12.98296 80.15880 55 ft 12 kts 288°
2026-05-08 20:13 12.98323 80.15790 55 ft 14 kts 286°
2026-05-08 20:13 12.98352 80.15687 55 ft 13 kts 285°
2026-05-08 20:14 12.98376 80.15598 53 ft 10 kts 285°
2026-05-08 20:14 12.98387 80.15555 51 ft 0 kts 285°
2026-05-08 20:16 12.98388 80.15553 52 ft 1 kts 285°
2026-05-08 20:16 12.98391 80.15538 53 ft 3 kts 285°
2026-05-08 20:16 12.98399 80.15510 56 ft 5 kts 285°
2026-05-08 20:16 12.98410 80.15471 56 ft 6 kts 294°
2026-05-08 20:17 12.98447 80.15451 55 ft 6 kts
2026-05-08 20:17 12.98482 80.15475 52 ft 7 kts 56°
2026-05-08 20:17 12.98488 80.15489 54 ft 0 kts 69°
2026-05-08 20:17 12.98505 80.15533 53 ft 27 kts 69°
2026-05-08 20:18 12.98664 80.15953 55 ft 95 kts 69°
2026-05-08 20:18 12.98968 80.16764 49 ft 146 kts 69°
2026-05-08 20:18 12.99382 80.17849 235 ft 172 kts 68°
2026-05-08 20:18 12.99820 80.19007 812 ft 177 kts 68°
2026-05-08 20:19 13.00341 80.20190 1216 ft 191 kts 54°
2026-05-08 20:19 13.01483 80.20984 1495 ft 214 kts 13°
2026-05-08 20:19 13.03049 80.20938 1819 ft 240 kts 351°
2026-05-08 20:19 13.04725 80.20504 2334 ft 257 kts 345°
2026-05-08 20:20 13.06456 80.19967 2984 ft 268 kts 345°
2026-05-08 20:20 13.08266 80.19446 3763 ft 272 kts 347°
2026-05-08 20:20 13.10046 80.18744 4567 ft 280 kts 327°
2026-05-08 20:20 13.11385 80.17289 5320 ft 286 kts 304°
2026-05-08 20:21 13.12523 80.15519 6029 ft 291 kts 304°
2026-05-08 20:21 13.13637 80.13810 6809 ft 293 kts 305°
2026-05-08 20:21 13.14781 80.12068 7576 ft 296 kts 305°
2026-05-08 20:21 13.15938 80.10310 8312 ft 299 kts 305°
2026-05-08 20:22 13.16985 80.08458 9038 ft 303 kts 291°
2026-05-08 20:22 13.17386 80.06326 9742 ft 308 kts 269°
2026-05-08 20:22 13.17000 80.04162 10364 ft 313 kts 250°
2026-05-08 20:22 13.16184 80.02006 10510 ft 336 kts 248°
2026-05-08 20:23 13.15277 79.99717 10645 ft 357 kts 248°
2026-05-08 20:23 13.14314 79.97315 10939 ft 369 kts 248°
2026-05-08 20:23 13.13331 79.94857 11454 ft 374 kts 248°
2026-05-08 20:23 13.12346 79.92377 12024 ft 377 kts 248°
2026-05-08 20:24 13.11358 79.89874 12584 ft 380 kts 249°
2026-05-08 20:24 13.10367 79.87350 13141 ft 383 kts 249°
2026-05-08 20:24 13.09368 79.84804 13696 ft 386 kts 249°
2026-05-08 20:24 13.08558 79.82170 14176 ft 387 kts 259°
2026-05-08 20:25 13.08260 79.79429 14691 ft 388 kts 271°
2026-05-08 20:25 13.08492 79.76677 15190 ft 388 kts 282°
2026-05-08 20:25 13.09142 79.73986 15687 ft 389 kts 285°
2026-05-08 20:25 13.09823 79.71293 16180 ft 391 kts 285°
2026-05-08 20:26 13.10497 79.68581 16683 ft 394 kts 285°
2026-05-08 20:26 13.11168 79.65851 17178 ft 396 kts 285°
2026-05-08 20:26 13.11841 79.63106 17671 ft 398 kts 284°
2026-05-08 20:26 13.12520 79.60339 18152 ft 401 kts 284°
2026-05-08 20:27 13.13202 79.57565 18561 ft 403 kts 284°
2026-05-08 20:27 13.13895 79.54766 18976 ft 406 kts 284°
2026-05-08 20:27 13.14591 79.51953 19369 ft 408 kts 284°
2026-05-08 20:27 13.15291 79.49121 19728 ft 411 kts 284°
2026-05-08 20:28 13.15994 79.46273 19850 ft 414 kts 284°
2026-05-08 20:28 13.16711 79.43367 19885 ft 426 kts 284°
2026-05-08 20:28 13.17450 79.40374 19892 ft 439 kts 284°
2026-05-08 20:28 13.18209 79.37304 19891 ft 446 kts 284°
2026-05-08 20:29 13.18971 79.34216 19887 ft 447 kts 284°
2026-05-08 20:29 13.19733 79.31121 19892 ft 448 kts 284°
2026-05-08 20:29 13.20497 79.28018 19892 ft 448 kts 284°
2026-05-08 20:29 13.21260 79.24920 19909 ft 448 kts 284°
2026-05-08 20:30 13.22014 79.21858 19910 ft 448 kts 284°
2026-05-08 20:30 13.22780 79.18761 19903 ft 448 kts 285°
2026-05-08 20:30 13.23548 79.15664 19907 ft 448 kts 285°
2026-05-08 20:30 13.24320 79.12563 19923 ft 448 kts 285°
2026-05-08 20:31 13.25093 79.09449 19918 ft 448 kts 284°
2026-05-08 20:31 13.25858 79.06352 19909 ft 448 kts 284°
2026-05-08 20:31 13.26620 79.03255 19924 ft 447 kts 285°
2026-05-08 20:31 13.27383 79.00160 19921 ft 447 kts 285°
2026-05-08 20:32 13.28131 78.97106 19934 ft 447 kts 285°
2026-05-08 20:32 13.28872 78.94007 19927 ft 447 kts 282°
2026-05-08 20:32 13.29253 78.90834 19935 ft 448 kts 272°
2026-05-08 20:32 13.29141 78.87640 19934 ft 448 kts 266°
2026-05-08 20:33 13.28898 78.84444 19927 ft 448 kts 266°
2026-05-08 20:33 13.28662 78.81252 19938 ft 449 kts 266°
2026-05-08 20:33 13.28435 78.78063 19930 ft 448 kts 266°
2026-05-08 20:33 13.28212 78.74871 19938 ft 448 kts 266°
2026-05-08 20:34 13.27989 78.71676 19940 ft 448 kts 266°
2026-05-08 20:34 13.27765 78.68484 19956 ft 448 kts 266°
2026-05-08 20:34 13.27300 78.62103 19948 ft 448 kts 266°
2026-05-08 20:35 13.27064 78.58905 19942 ft 449 kts 266°
2026-05-08 20:35 13.26828 78.55711 19945 ft 449 kts 266°
2026-05-08 20:35 13.26593 78.52517 19945 ft 449 kts 266°
2026-05-08 20:35 13.26360 78.49323 19938 ft 449 kts 266°
2026-05-08 20:36 13.26312 78.46120 19939 ft 448 kts 275°
2026-05-08 20:36 13.26731 78.42956 19938 ft 447 kts 280°
2026-05-08 20:36 13.27248 78.39815 19941 ft 447 kts 280°
2026-05-08 20:36 13.27757 78.36659 19952 ft 448 kts 280°
2026-05-08 20:37 13.28258 78.33512 19947 ft 448 kts 280°
2026-05-08 20:37 13.28757 78.30351 19949 ft 448 kts 280°
2026-05-08 20:37 13.29254 78.27198 19951 ft 448 kts 279°
2026-05-08 20:37 13.29751 78.24039 19960 ft 448 kts 279°
2026-05-08 20:38 13.30240 78.20884 19961 ft 448 kts 278°
2026-05-08 20:38 13.30425 78.17689 19962 ft 448 kts 271°
2026-05-08 20:38 13.30462 78.14481 19955 ft 449 kts 271°
2026-05-08 20:38 13.30503 78.11302 19668 ft 441 kts 272°
2026-05-08 20:39 13.30546 78.08170 19027 ft 436 kts 271°
2026-05-08 20:39 13.30588 78.05081 18460 ft 430 kts 271°
2026-05-08 20:39 13.30631 78.02023 17842 ft 426 kts 272°
2026-05-08 20:39 13.30677 77.98999 17263 ft 420 kts 271°
2026-05-08 20:40 13.30724 77.96018 16740 ft 415 kts 271°
2026-05-08 20:40 13.30770 77.93119 16635 ft 398 kts 271°
2026-05-08 20:40 13.30811 77.90326 16501 ft 383 kts 271°
2026-05-08 20:40 13.30847 77.87635 16331 ft 373 kts 271°
2026-05-08 20:41 13.30881 77.84983 16169 ft 370 kts 272°
2026-05-08 20:41 13.30916 77.82347 16006 ft 369 kts 272°
2026-05-08 20:41 13.30951 77.79723 15836 ft 368 kts 272°
2026-05-08 20:41 13.30987 77.77093 15614 ft 368 kts 272°
2026-05-08 20:42 13.31017 77.74453 14979 ft 371 kts 272°
2026-05-08 20:42 13.31039 77.71808 14418 ft 368 kts 272°
2026-05-08 20:42 13.31054 77.69195 13881 ft 355 kts 272°
2026-05-08 20:42 13.31068 77.66695 13315 ft 345 kts 272°
2026-05-08 20:43 13.31084 77.64294 12796 ft 335 kts 272°
2026-05-08 20:43 13.31102 77.61932 12296 ft 327 kts 272°
2026-05-08 20:43 13.31120 77.59629 11812 ft 319 kts 272°
2026-05-08 20:43 13.31138 77.57373 11329 ft 312 kts 272°
2026-05-08 20:44 13.31151 77.55171 10857 ft 306 kts 272°
2026-05-08 20:44 13.31164 77.53001 10400 ft 301 kts 272°
2026-05-08 20:44 13.31178 77.50868 9949 ft 296 kts 272°
2026-05-08 20:44 13.31191 77.48816 9834 ft 278 kts 270°
2026-05-08 20:45 13.30790 77.46949 9726 ft 265 kts 239°
2026-05-08 20:45 13.30027 77.46000 9616 ft 256 kts 216°
2026-05-08 20:45 13.27861 77.45176 9044 ft 248 kts 188°
2026-05-08 20:45 13.26177 77.44853 8661 ft 245 kts 188°
2026-05-08 20:46 13.24507 77.44760 8293 ft 237 kts 167°
2026-05-08 20:46 13.22989 77.45287 7949 ft 227 kts 145°
2026-05-08 20:46 13.21805 77.46309 7544 ft 220 kts 125°
2026-05-08 20:46 13.21067 77.47685 7018 ft 221 kts 104°
2026-05-08 20:47 13.20870 77.49226 6591 ft 214 kts 88°
2026-05-08 20:47 13.20864 77.50223 6400 ft 207 kts 88°
2026-05-08 20:47 13.20852 77.51655 6134 ft 194 kts 89°
2026-05-08 20:47 13.20841 77.53000 5894 ft 184 kts 88°
2026-05-08 20:48 13.20831 77.54297 5655 ft 179 kts 89°
2026-05-08 20:48 13.20822 77.55555 5430 ft 173 kts 89°
2026-05-08 20:48 13.20812 77.56756 5224 ft 164 kts 89°
2026-05-08 20:48 13.20803 77.57888 5011 ft 155 kts 89°
2026-05-08 20:49 13.20794 77.59007 4827 ft 151 kts 90°
2026-05-08 20:49 13.20786 77.60077 4632 ft 150 kts 90°
2026-05-08 20:49 13.20777 77.61145 4436 ft 149 kts 91°
2026-05-08 20:49 13.20769 77.62203 4245 ft 148 kts 90°
2026-05-08 20:50 13.20760 77.63255 4058 ft 147 kts 91°
2026-05-08 20:50 13.20752 77.64303 3867 ft 147 kts 91°
2026-05-08 20:50 13.20743 77.65356 3676 ft 147 kts 91°
2026-05-08 20:50 13.20731 77.66408 3473 ft 148 kts 90°
2026-05-08 20:51 13.20735 77.67465 3257 ft 147 kts 90°
2026-05-08 20:51 13.20724 77.68522 3081 ft 147 kts 91°
2026-05-08 20:51 13.20711 77.69535 3011 ft 126 kts 90°
2026-05-08 20:51 13.20707 77.70257 3011 ft 76 kts 90°
2026-05-08 20:52 13.20704 77.70677 3011 ft 48 kts 90°
2026-05-08 20:52 13.20670 77.70935 3014 ft 27 kts 114°
2026-05-08 20:52 13.20601 77.71066 3011 ft 17 kts 120°
2026-05-08 20:52 13.20539 77.71171 3015 ft 16 kts 120°
2026-05-08 20:53 13.20526 77.71217 3011 ft 0 kts 92°
2026-05-08 20:53 13.20526 77.71223 3011 ft 2 kts 92°
2026-05-08 20:53 13.20525 77.71231 3011 ft 0 kts 92°
2026-05-08 20:55 13.20525 77.71232 3011 ft 0 kts 92°
2026-05-08 20:56 13.20525 77.71238 3011 ft 2 kts 94°
2026-05-08 20:56 13.20516 77.71261 3011 ft 5 kts 122°
2026-05-08 20:56 13.20479 77.71277 3011 ft 7 kts 174°
2026-05-08 20:56 13.20421 77.71277 3011 ft 9 kts 180°
2026-05-08 20:57 13.20353 77.71276 3011 ft 10 kts 181°
2026-05-08 20:57 13.20280 77.71268 3011 ft 11 kts 204°
2026-05-08 20:57 13.20260 77.71197 3011 ft 11 kts 271°
2026-05-08 20:57 13.20261 77.71114 3011 ft 10 kts 270°
2026-05-08 20:58 13.20248 77.71077 3012 ft 4 kts 208°
2026-05-08 20:58 13.20219 77.71078 3011 ft 4 kts 178°
2026-05-08 20:58 13.20192 77.71078 3011 ft 4 kts 179°
2026-05-08 20:58 13.20187 77.71078 3011 ft 0 kts 181°